Index of /milestones/org.ametys.plugins

[ICO]NameLast modifiedSizeDescription

[PARENTDIR]Parent Directory  -  
[DIR]odf-apogee/2012-08-02 16:54 -  
[DIR]odf-workflow/2012-10-12 19:51 -  
[DIR]external-edition/2012-10-12 19:51 -  
[DIR]gadgets/2013-04-29 16:05 -  
[DIR]document2flash/2013-04-29 16:05 -  
[DIR]mypage/2014-12-03 11:24 -  
[DIR]news/2015-10-21 13:13 -  
[DIR]dashboard/2015-10-21 13:13 -  
[DIR]myfavorites/2015-10-21 13:13 -  
[DIR]content-export/2015-10-30 17:42 -  
[DIR]ugc/2016-02-01 14:58 -  
[DIR]web-analytics/2016-04-19 16:15 -  
[DIR]datainclusion/2016-04-19 16:15 -  
[DIR]intranet/2016-07-20 17:11 -  
[DIR]odf-lomsearch/2016-09-21 14:43 -  
[DIR]odf-export/2016-09-21 14:43 -  
[DIR]faq/2016-09-21 14:43 -  
[DIR]zimbra/2016-12-24 18:28 -  
[DIR]web-contentio/2017-01-27 10:12 -  
[DIR]explorer/2017-07-03 15:11 -  
[DIR]workflow/2017-07-03 15:15 -  
[DIR]repository/2017-07-03 16:01 -  
[DIR]contentio/2017-07-03 17:09 -  
[DIR]skincommons/2017-07-03 17:09 -  
[DIR]skinfactory/2017-07-03 17:10 -  
[DIR]skineditor/2017-07-03 17:10 -  
[DIR]socialnetworking/2017-07-03 17:10 -  
[DIR]translationflagging/2017-07-03 17:11 -  
[DIR]contents-tree/2017-07-21 20:40 -  
[DIR]agent/2017-07-21 20:40 -  
[DIR]proxied-content/2017-07-21 20:40 -  
[DIR]glpi/2017-09-06 18:03 -  
[DIR]inlinemedia/2017-09-06 18:03 -  
[DIR]multimedia/2017-09-06 18:03 -  
[DIR]link-directory/2017-10-04 19:21 -  
[DIR]bpm/2017-10-04 19:21 -  
[DIR]glossary/2017-11-08 20:37 -  
[DIR]maps/2017-11-08 20:39 -  
[DIR]page-subscription/2017-12-06 20:01 -  
[DIR]tagcloud/2017-12-06 20:02 -  
[DIR]translation-flagging/2017-12-06 20:02 -  
[DIR]skin-commons/2018-01-10 18:55 -  
[DIR]artisteer/2018-02-10 13:12 -  
[DIR]external-data/2018-02-10 13:14 -  
[DIR]messaging-connector/2018-02-10 13:16 -  
[DIR]bluemind/2018-02-10 13:17 -  
[DIR]web-content-io/2018-02-10 13:25 -  
[DIR]server-directory/2018-02-28 19:50 -  
[DIR]sms/2018-02-28 19:52 -  
[DIR]social-networking/2018-02-28 19:52 -  
[DIR]extraction/2018-04-05 23:56 -  
[DIR]syndication/2018-04-06 00:00 -  
[DIR]odf/2018-04-06 00:22 -  
[DIR]odf-web/2018-04-06 00:31 -  
[DIR]odf-sync/2018-04-06 00:56 -  
[DIR]content-io/2018-05-03 13:29 -  
[DIR]contenttypes-editor/2018-05-03 13:30 -  
[DIR]queries-directory/2018-05-03 13:31 -  
[DIR]blog/2018-05-03 14:20 -  
[DIR]forms/2018-05-03 14:20 -  
[DIR]skin-editor/2018-05-03 14:21 -  
[DIR]skin-factory/2018-05-03 14:22 -  
[DIR]user-directory/2018-05-03 14:27 -  
[DIR]odf-pilotage/2018-05-03 15:21 -  
[DIR]datasources-explorer/2018-06-07 19:30 -  
[DIR]thesaurus/2018-06-07 19:31 -  
[DIR]front-edition/2018-06-07 20:26 -  
[DIR]exchange/2018-06-07 20:27 -  
[DIR]newsletter/2018-06-07 20:27 -  
[DIR]workspaces/2018-06-07 20:33 -  
[DIR]workspaces-site/2018-06-07 20:33 -  
[DIR]cart/2018-07-06 19:37 -  
[DIR]calendar/2018-07-06 20:39 -  
[DIR]flipbook/2018-07-06 20:40 -  
[DIR]google-calendar/2018-07-06 20:41 -  
[DIR]survey/2018-07-06 22:33 -